Gainesville, GA

9:05 PM EDT on April 25, 2017 (GMT -0400)
Gilmer Memorial

Weather History for KGVL - March, 2013

Change the Weather History Date:

Sunday, March 31, 2013

  Actual Average Record
Temperature  
Mean Temperature 58 °F 57 °F  
Max Temperature 64 °F 67 °F 87 °F (1963)
Min Temperature 53 °F 46 °F 25 °F (1950)
Degree Days  
Heating Degree Days 6 9  
Month to date heating degree days 388  
Since 1 July heating degree days 2852  
Cooling Degree Days 0 0  
Month to date cooling degree days 5  
Year to date cooling degree days 5  
Growing Degree Days 8 (Base 50)    
Moisture  
Dew Point 53 °F    
Average Humidity 89    
Maximum Humidity 100    
Minimum Humidity 70    
Precipitation  
Precipitation 0.40 in 0.14 in 2.08 in (1976)
Month to date precipitation 5.42  
Year to date precipitation 15.32  
Snow  
Snow 0.00 in - - ()
Month to date snowfall  
Since 1 July snowfall  
Snow Depth -    
Sea Level Pressure  
Sea Level Pressure 29.97 in    
Wind  
Wind Speed 6 mph (SW)    
Max Wind Speed 17 mph    
Max Gust Speed 22 mph    
Visibility 6 miles    
Events Rain    
T = Trace of Precipitation, MM = Missing Value Source: NWS Daily Summary

Daily Weather History Graph

Daily Weather History Graph

Search for Another Location

Airport or City:

Trip Planner

Search our weather history database for the weather conditions in past years. The results will help you decide how hot, cold, wet, or windy it might be!

Date:

Astronomy

Mar. 31, 2013 Rise Set
Actual Time 7:23 AM EDT 7:55 PM EDT
Civil Twilight 6:58 AM EDT 8:20 PM EDT
Nautical Twilight 6:28 AM EDT 8:50 PM EDT
Astronomical Twilight 5:58 AM EDT 9:20 PM EDT
Moon No Moon Rise 10:21 AM EDT (3/31)
Length of Visible Light 13h 22m
Length of Day
12h 32m
Waning Gibbous, 78% of the Moon is Illuminated
Mar 31
Waning Gibbous
Apr 3
Last Quarter
Apr 10
New
Apr 18
First Quarter
Apr 25
Full

Hourly Weather History & Observations

Time (EDT) Temp. Dew Point Humidity Pressure Visibility Wind Dir Wind Speed Gust Speed Precip Events Conditions
12:16 AM 55.4 °F 53.6 °F 94% 30.06 in 2.0 mi WNW 3.5 mph - 0.10 in Rain Heavy Rain
12:20 AM 55.4 °F 53.6 °F 94% 30.06 in 1.8 mi WNW 3.5 mph - 0.11 in Rain Heavy Rain
12:25 AM 55.4 °F 53.6 °F 94% 30.05 in 2.0 mi ENE 3.5 mph - 0.13 in Rain Rain
12:29 AM 55.4 °F 53.6 °F 94% 30.04 in 3.0 mi East 3.5 mph - 0.13 in Rain Rain
12:53 AM 55.0 °F 53.1 °F 93% 30.01 in 6.0 mi ESE 3.5 mph - 0.14 in Rain Light Rain
1:18 AM 53.6 °F 53.6 °F 100% 30.03 in 3.0 mi SE 3.5 mph - 0.01 in Rain Light Rain
1:21 AM 53.6 °F 53.6 °F 100% 30.03 in 2.5 mi SE 4.6 mph - 0.01 in Rain Light Rain
1:40 AM 53.6 °F 53.6 °F 100% 30.03 in 2.0 mi Calm Calm - 0.03 in Rain Rain
1:53 AM 54.0 °F 53.1 °F 97% 30.00 in 2.5 mi Calm Calm - 0.06 in Rain Rain
2:06 AM 53.6 °F 53.6 °F 100% 30.02 in 3.0 mi Calm Calm - 0.02 in Rain Light Rain
2:31 AM 53.6 °F 53.6 °F 100% 30.01 in 4.0 mi Calm Calm - 0.03 in Rain Light Rain
2:35 AM 53.6 °F 53.6 °F 100% 30.01 in 5.0 mi South 3.5 mph - 0.03 in Rain Light Rain
2:53 AM 54.0 °F 53.1 °F 97% 29.97 in 5.0 mi SSE 3.5 mph - 0.03 in Rain Light Rain
3:12 AM 53.6 °F 53.6 °F 100% 29.99 in 2.0 mi South 4.6 mph - 0.00 in Rain Light Rain
3:16 AM 53.6 °F 53.6 °F 100% 29.99 in 1.5 mi South 4.6 mph - 0.00 in Rain Light Rain
3:29 AM 53.6 °F 53.6 °F 100% 29.99 in 1.0 mi South 4.6 mph - 0.01 in Rain Light Rain
3:42 AM 53.6 °F 53.6 °F 100% 29.99 in 1.8 mi South 5.8 mph - 0.01 in Rain Light Rain
3:44 AM 53.6 °F 53.6 °F 100% 29.99 in 2.5 mi South 4.6 mph - 0.01 in Rain Light Rain
3:51 AM 53.6 °F 53.6 °F 100% 29.98 in 4.0 mi SSW 4.6 mph - 0.02 in Rain Light Rain
3:53 AM 54.0 °F 53.1 °F 97% 29.96 in 4.0 mi South 5.8 mph - 0.02 in Rain Light Rain
4:19 AM 55.4 °F 53.6 °F 94% 29.98 in 6.0 mi SSW 8.1 mph - 0.00 in   Overcast
4:38 AM 55.4 °F 53.6 °F 94% 29.97 in 5.0 mi SSW 5.8 mph - 0.00 in   Overcast
4:53 AM 55.0 °F 53.1 °F 93% 29.94 in 5.0 mi SSW 4.6 mph - 0.00 in   Overcast
5:50 AM 55.4 °F 53.6 °F 94% 29.95 in 5.0 mi SW 11.5 mph - 0.00 in Rain Light Rain
5:53 AM 55.9 °F 53.1 °F 90% 29.92 in 5.0 mi SW 10.4 mph 17.3 mph 0.00 in Rain Light Rain
6:07 AM 55.4 °F 53.6 °F 94% 29.95 in 7.0 mi SW 10.4 mph - 0.01 in Rain Light Rain
6:53 AM 55.9 °F 53.1 °F 90% 29.92 in 9.0 mi WSW 13.8 mph 19.6 mph 0.01 in   Overcast
7:21 AM 55.4 °F 53.6 °F 94% 29.95 in 8.0 mi WSW 12.7 mph - N/A   Overcast
7:53 AM 55.9 °F 53.1 °F 90% 29.94 in 8.0 mi WSW 10.4 mph - N/A   Overcast
8:53 AM 55.9 °F 53.1 °F 90% 29.96 in 8.0 mi West 6.9 mph - N/A   Overcast
9:47 AM 57.2 °F 53.6 °F 88% 29.99 in 9.0 mi WSW 12.7 mph - N/A   Overcast
9:53 AM 57.0 °F 53.1 °F 87% 29.97 in 9.0 mi WSW 8.1 mph - N/A   Overcast
9:56 AM 57.2 °F 53.6 °F 88% 29.99 in 9.0 mi West 10.4 mph - N/A   Overcast
10:34 AM 59.0 °F 53.6 °F 82% 29.99 in 10.0 mi WSW 16.1 mph - N/A   Mostly Cloudy
10:53 AM 59.0 °F 53.1 °F 81% 29.97 in 10.0 mi WSW 10.4 mph - N/A   Mostly Cloudy
11:16 AM 59.0 °F 51.8 °F 77% 29.99 in 10.0 mi WSW 13.8 mph 19.6 mph N/A   Overcast
11:33 AM 60.8 °F 53.6 °F 77% 29.98 in 10.0 mi WSW 11.5 mph - N/A   Overcast
11:53 AM 59.0 °F 52.0 °F 78% 29.97 in 10.0 mi SW 13.8 mph 21.9 mph N/A   Overcast
12:01 PM 59.0 °F 51.8 °F 77% 29.99 in 10.0 mi WSW 13.8 mph - N/A   Overcast
12:35 PM 60.8 °F 51.8 °F 72% 29.99 in 10.0 mi WSW 17.3 mph - N/A   Overcast
12:53 PM 61.0 °F 51.1 °F 70% 29.97 in 10.0 mi WSW 11.5 mph 18.4 mph N/A   Overcast
1:53 PM 62.1 °F 52.0 °F 70% 29.94 in 10.0 mi West 10.4 mph - N/A   Mostly Cloudy
2:32 PM 60.8 °F 53.6 °F 77% 29.96 in 2.0 mi WSW 10.4 mph - 0.03 in Rain Rain
2:37 PM 59.0 °F 53.6 °F 82% 29.95 in 1.0 mi WSW 8.1 mph - 0.08 in Rain Heavy Rain
2:47 PM 57.2 °F 55.4 °F 94% 29.95 in 1.8 mi West 6.9 mph - 0.11 in Rain Light Rain
2:50 PM 57.2 °F 55.4 °F 94% 29.95 in 2.5 mi WSW 8.1 mph - 0.12 in Rain Light Rain
2:53 PM 59.0 °F 55.0 °F 87% 29.93 in 6.0 mi WSW 6.9 mph - 0.12 in Rain Light Rain
3:53 PM 60.1 °F 55.9 °F 86% 29.90 in 4.0 mi WSW 6.9 mph - 0.01 in Rain Light Rain
4:53 PM 62.1 °F 57.0 °F 84% 29.88 in 10.0 mi WSW 6.9 mph - 0.00 in   Partly Cloudy
5:53 PM 64.0 °F 55.0 °F 73% 29.89 in 10.0 mi West 10.4 mph - N/A   Mostly Cloudy
6:53 PM 64.0 °F 55.0 °F 73% 29.87 in 10.0 mi West 4.6 mph - N/A   Overcast
7:53 PM 62.1 °F 53.1 °F 72% 29.87 in 10.0 mi WSW 6.9 mph - 0.01 in   Scattered Clouds
8:53 PM 61.0 °F 52.0 °F 72% 29.87 in 10.0 mi West 6.9 mph - N/A   Overcast
9:53 PM 60.1 °F 53.1 °F 78% 29.88 in 10.0 mi WSW 4.6 mph - N/A   Overcast
10:53 PM 60.1 °F 53.1 °F 78% 29.89 in 10.0 mi West 5.8 mph - N/A   Mostly Cloudy
11:53 PM 59.0 °F 53.1 °F 81% 29.88 in 10.0 mi WSW 6.9 mph - N/A   Overcast